Probability
0 0 0 0 0 0 0 0 0 0 0 0 0 0 0 0 0 0 0 0 0 0 0 0 0 0 0 0 0 0 0 0 0 0 0 0 0 0 0 0 0 0 0
0 0 0 0 0 0 0 0 0 0 0 0 0 0 0 0 0 0 0 0 0 0 0 0 0 0 0 0 0 0 0 0 0 0 0 0 0 0 0 0 0 0 0
0 0 0 0 0 0 0 0 0 0 0 0 0 0 0 0 0 0 0 0 0 0 0 0 0 0 0 0 0 0 0 0 0 0 0 0 0 0 0 0 0 0 0
0 0 0 0 0 0 0 0 0 0 0 0 0 0 0 0 0 0 0 0 0 0 0 0 0 0 0 0 0 0 0 0 0 0 0 0 0 0 0 0 0 0 0
0 0 0 0 0 0 0 0 0 0 0 0 0 0 0 0 0 0 0 0 0 0 0 0 0 0 0 0 0 0 0 0 0 0 0 0 0 0 0 0 0 0 0
0 0 0 0 0 0 0 0 0 0 0 0 0 0 0 0 0 0 0 0 0 0 0 0 0 0 0 0 0 0 0 0 0 0 0 0 0 0 0 0 0 0 0
0 0 0 0 0 0 0 0 0 0 0 0 0 0 0 0 0 0 0 0 0 0 0 0 0 0 0 0 0 0 0 0 0 0 0 0 0 0 0 0 0 0 0
0 0 0 0 0 0 0 0 0 0 0 0 0 0 0 0 0 0 0 0 0 0 0 0 0 0 0 0 0 0 0 0 0 0 0 0 0 0 0 0 0 0 0
0 0 0 0 0 0 0 0 0 0 0 0 0 0 0 0 0 0 0 0 0 0 0 0 0 0 0 0 0 0 0 0 0 0 0 0 0 0 0 0 0 0 0
0 0 0 0 0 0 0 0 0 0 0 0 0 0 0 0 0 0 0 0 0 0 0 0 0 0 0 0 0 0 0 0 0 0 0 0 0 0 0 0 0 0 0
0 0 0 0 0 0 0 0 0 0 0 0 0 0 0 0 0 0 0 0 0 0 0 0 0 0 0 0 0 0 0 0 0 0 0 0 0 0 0 0 0 0 0
0 0 0 0 0 0 0 0 0 0 0 0 0 0 0 0 0 0 0 0 0 0 0 0 0 0 0 0 0 0 0 0 0 0 0 0 0 0 0 0 0 0 0
0 0 0 0 0 0 0 0 0 0 0 0 0 0 0 0 0 0 0 0 0 0 0 0 0 0 0 0 0 0 0 0 0 0 0 0 0 0 0 0 0 0 0
0 0 0 0 0 0 0 0 0 0 0 0 0 0 0 0 0 0 0 0 0 0 0 0 0 0 0 0 0 0 0 0 0 0 0 0 0 0 0 0 0 0 0
0 0 0 0 0 0 0 0 0 0 0 0 0 0 0 0 0 0 0 0 0 0 0 0 0 0 0 0 0 0 0 0 0 0 0 0 0 0 0 0 0 0 0
0 0 0 0 0 0 0 0 0 0 0 0 0 0 0 0 0 0 0 0 0 0 0 0 0 0 0 0 0 0 0 0 0 0 0 0 0 0 0 0 0 0 0
0 0 0 0 0 0 0 0 0 0 0 0 0 0 0 0 0 0 0 0 0 0 0 0 0 0 0 0 0 0 0 0 0 0 0 0 0 0 0 0 0 0 0
0 0 0 0 0 0 0 0 0 0 0 0 0 0 0 0 0 0 0 0 0 0 0 0 0 0 0 0 0 0 0 0 0 0 0 0 0 0 0 0 0 0 0
0 0 0 0 0 0 0 0 0 0 0 0 0 0 0 0 0 0 0 0 0 0 0 0 0 0 0 0 0 0 0 0 0 0 0 0 0 0 0 0 0 0 0
0 0 0 0 0 0 0 0 0 0 0 0 0 0 0 0 0 0 0 0 0 0 0 0 0 0 0 0 0 0 0 0 0 0 0 0 0 0 0 0 0 0 0
0 0 0 0 0 0 0 0 0 0 0 0 0 0 0 0 0 0 0 0 0 0 0 0 0 0 0 0 0 0 0 0 0 0 0 0 0 0 0 0 0 0 0
0 0 0 0 0 0 0 0 0 0 0 0 0 0 0 0 0 0 0 0 0 0 0 0 0 0 0 0 0 0 0 0 0 0 0 0 0 0 0 0 0 0 0
0 0 0 0 0 0 0 0 0 0 0 0 0 0 0 0 0 0 0 0 0 0 0 0 0 0 0 0 0 0 0 0 0 0 0 0 0 0 0 0 0 0 0
0 0 0 0 0 0 0 0 0 0 0 0 0 0 0 0 0 0 0 0 0 0 0 0 0 0 0 0 0 0 0 0 0 0 0 0 0 0 0 0 0 0 0
0 0 0 0 0 0 0 0 0 0 0 0 0 0 0 0 0 0 0 0 0 0 0 0 0 0 0 0 0 0 0 0 0 0 0 0 0 0 0 0 0 0 0
0 0 0 0 0 0 0 0 0 0 0 0 0 0 0 0 0 0 0 0 0 0 0 0 0 0 0 0 0 0 0 0 0 0 0 0 0 0 0 0 0 0 0
Height
5587 5587 5586 5586 5586 5586 5586 5585 5585 5586 5587 5588 5590 5591 5593 5595 5597 5599 5601 5604 5606 5609 5611 5614 5617 5619 5621 5624 5626 5629 5632 5635 5640 5646 5649 5652 5656 5660 5664 5669 5674 5678 5683
5574 5574 5573 5573 5572 5572 5572 5571 5571 5572 5573 5574 5576 5577 5578 5579 5581 5583 5585 5587 5590 5592 5595 5598 5601 5603 5606 5609 5611 5614 5617 5620 5624 5629 5633 5636 5640 5644 5648 5653 5658 5663 5668
5562 5561 5560 5559 5558 5558 5557 5557 5557 5558 5559 5560 5561 5562 5563 5564 5565 5566 5568 5570 5573 5576 5579 5582 5585 5588 5590 5593 5595 5598 5601 5604 5608 5612 5617 5620 5624 5628 5632 5637 5642 5647 5652
5549 5548 5547 5546 5544 5543 5543 5543 5543 5543 5544 5545 5546 5547 5548 5548 5549 5550 5551 5553 5556 5559 5563 5566 5569 5572 5575 5577 5579 5582 5585 5588 5591 5595 5599 5603 5607 5611 5614 5620 5626 5631 5637
5536 5535 5533 5532 5530 5529 5528 5528 5528 5529 5529 5530 5531 5532 5532 5533 5534 5534 5536 5537 5540 5543 5546 5550 5553 5556 5559 5561 5564 5566 5569 5572 5575 5578 5582 5586 5591 5594 5599 5604 5609 5615 5620
5524 5522 5520 5518 5517 5516 5515 5514 5514 5514 5515 5516 5517 5517 5518 5518 5518 5519 5520 5522 5524 5527 5530 5534 5537 5540 5543 5545 5547 5550 5553 5555 5559 5562 5566 5570 5575 5579 5583 5587 5592 5598 5605
5512 5510 5507 5505 5504 5503 5502 5501 5501 5501 5501 5502 5502 5503 5503 5503 5503 5503 5504 5506 5508 5511 5514 5517 5520 5524 5526 5529 5531 5534 5537 5539 5542 5546 5550 5554 5559 5563 5567 5573 5577 5582 5589
5499 5497 5495 5493 5492 5490 5490 5489 5488 5488 5488 5488 5488 5488 5488 5488 5488 5488 5489 5490 5492 5495 5498 5501 5504 5508 5510 5513 5515 5518 5521 5524 5527 5530 5534 5539 5542 5546 5550 5556 5561 5567 5573
5487 5485 5483 5481 5479 5479 5477 5476 5476 5475 5475 5474 5474 5474 5474 5474 5473 5473 5473 5475 5478 5480 5483 5485 5488 5492 5495 5497 5499 5503 5506 5509 5511 5514 5518 5522 5526 5531 5535 5540 5545 5551 5558
5475 5473 5471 5469 5468 5467 5465 5464 5463 5462 5462 5461 5461 5460 5460 5460 5459 5459 5459 5460 5463 5466 5468 5471 5474 5476 5478 5480 5483 5486 5490 5493 5496 5499 5503 5507 5511 5515 5520 5525 5530 5535 5541
5463 5461 5459 5457 5455 5454 5453 5452 5451 5450 5449 5448 5448 5447 5446 5446 5445 5445 5444 5445 5448 5450 5453 5455 5458 5460 5462 5465 5467 5470 5474 5477 5480 5484 5488 5492 5496 5500 5505 5510 5515 5520 5525
5452 5450 5448 5446 5444 5442 5441 5439 5438 5437 5436 5435 5434 5434 5433 5432 5431 5431 5430 5431 5432 5434 5437 5440 5442 5445 5447 5449 5452 5454 5457 5460 5464 5468 5472 5477 5481 5486 5490 5495 5500 5505 5510
5441 5439 5436 5434 5432 5430 5428 5427 5425 5424 5423 5422 5421 5420 5419 5418 5418 5417 5417 5417 5418 5419 5422 5425 5427 5429 5431 5433 5436 5439 5441 5444 5448 5452 5456 5461 5466 5471 5476 5480 5485 5490 5494
5430 5427 5425 5422 5420 5417 5416 5414 5413 5411 5410 5409 5407 5406 5406 5405 5404 5403 5403 5403 5404 5405 5407 5410 5412 5414 5416 5418 5421 5423 5426 5430 5433 5437 5442 5446 5451 5455 5460 5465 5469 5474 5478
5419 5416 5413 5411 5408 5406 5403 5401 5400 5399 5396 5395 5394 5393 5392 5391 5390 5389 5389 5390 5391 5392 5393 5395 5397 5399 5401 5404 5406 5409 5412 5415 5419 5423 5427 5431 5436 5440 5445 5450 5454 5458 5462
5407 5405 5402 5399 5396 5394 5392 5390 5387 5386 5384 5382 5381 5380 5379 5378 5377 5376 5376 5376 5377 5378 5379 5381 5383 5385 5387 5389 5392 5395 5398 5402 5405 5409 5413 5417 5421 5426 5430 5434 5438 5442 5447
5396 5393 5390 5387 5385 5382 5380 5378 5377 5375 5372 5371 5369 5367 5366 5366 5365 5364 5363 5363 5364 5365 5366 5368 5369 5371 5373 5376 5378 5381 5384 5388 5392 5395 5399 5403 5407 5411 5416 5420 5423 5427 5431
5386 5383 5379 5377 5374 5371 5369 5367 5365 5363 5362 5360 5358 5356 5355 5354 5353 5352 5351 5351 5352 5353 5354 5355 5357 5358 5360 5363 5365 5368 5371 5375 5378 5382 5386 5390 5394 5397 5401 5405 5409 5412 5416
5377 5373 5369 5366 5363 5361 5359 5356 5354 5352 5351 5349 5347 5346 5344 5343 5341 5341 5340 5340 5340 5341 5342 5343 5345 5347 5349 5351 5353 5356 5359 5363 5366 5370 5373 5377 5380 5384 5388 5391 5394 5398 5401
5367 5363 5360 5356 5354 5351 5349 5346 5344 5342 5340 5338 5337 5335 5334 5332 5331 5330 5329 5329 5330 5331 5332 5333 5334 5335 5338 5340 5342 5345 5348 5351 5354 5358 5361 5364 5367 5371 5374 5377 5380 5384 5387
5359 5355 5351 5347 5344 5342 5339 5337 5335 5333 5331 5329 5327 5326 5324 5322 5321 5321 5320 5320 5320 5321 5322 5323 5324 5326 5327 5329 5332 5334 5337 5340 5343 5346 5349 5352 5355 5358 5361 5364 5367 5370 5374
5351 5347 5343 5339 5336 5333 5331 5329 5326 5324 5322 5321 5319 5317 5315 5314 5313 5312 5312 5312 5312 5312 5313 5314 5316 5317 5318 5320 5322 5325 5328 5331 5333 5336 5338 5341 5344 5346 5349 5352 5355 5359 5363
5343 5339 5336 5332 5329 5326 5323 5321 5318 5316 5315 5313 5311 5309 5308 5306 5305 5305 5304 5304 5304 5304 5305 5306 5307 5309 5310 5311 5314 5316 5319 5321 5324 5326 5329 5331 5334 5336 5339 5342 5345 5348 5352
5337 5333 5329 5326 5322 5319 5316 5314 5312 5309 5308 5306 5304 5302 5301 5299 5298 5297 5296 5296 5297 5297 5298 5298 5300 5301 5302 5303 5305 5307 5310 5312 5315 5317 5320 5322 5325 5327 5330 5333 5336 5339 5342
5330 5326 5323 5319 5316 5313 5310 5308 5305 5303 5301 5300 5298 5296 5294 5293 5291 5290 5289 5289 5289 5290 5291 5291 5292 5293 5295 5296 5298 5300 5302 5304 5307 5309 5312 5314 5316 5319 5321 5324 5327 5330 5332
5324 5320 5317 5313 5310 5307 5304 5302 5300 5298 5296 5294 5292 5290 5289 5287 5285 5284 5283 5283 5283 5284 5284 5285 5286 5287 5288 5289 5291 5292 5295 5297 5299 5301 5304 5306 5309 5311 5313 5316 5319 5321 5323
Wind_Speed
45 45 46 46 46 47 48 49 50 51 50 50 51 52 52 54 55 57 57 57 57 57 56 56 55 55 55 55 56 56 56 56 56 55 56 57 57 57 56 56 55 55 54
44 46 46 47 48 48 49 50 50 50 50 50 51 51 52 53 55 56 57 57 57 57 56 57 56 55 55 56 57 57 57 56 56 56 56 57 58 58 59 58 58 58 57
45 45 46 47 49 49 50 50 49 49 51 51 51 52 53 53 53 54 57 57 57 57 57 57 57 56 56 56 57 58 58 57 57 57 57 57 59 60 60 60 60 59 59
44 45 46 46 48 48 48 48 49 49 50 51 51 51 53 54 54 55 55 56 57 57 57 57 57 57 57 56 57 58 58 58 57 58 57 57 58 59 60 61 61 61 60
44 45 46 46 46 46 46 47 48 49 50 51 52 52 52 54 55 55 56 56 55 55 56 56 56 56 56 56 57 58 58 58 58 59 58 57 57 57 58 59 61 60 60
43 44 46 45 45 45 46 47 48 48 50 51 51 52 52 53 54 55 55 56 56 56 55 55 56 56 56 56 56 57 58 59 58 59 58 57 56 57 58 58 58 58 57
43 44 44 44 44 44 45 46 47 48 49 50 51 51 52 53 53 54 55 55 56 56 56 55 55 55 55 56 55 55 56 57 58 59 58 57 56 56 56 56 57 57 56
43 43 43 44 44 44 46 46 46 47 48 48 49 49 50 50 51 52 53 54 54 55 56 55 54 54 55 55 56 55 56 56 56 57 57 56 55 54 55 56 57 58 57
41 42 42 42 42 43 44 44 44 45 46 47 47 47 48 48 49 50 52 53 53 53 54 54 54 54 55 55 56 55 55 55 55 55 54 54 55 55 56 57 58 58 58
40 40 41 41 42 42 43 44 44 44 45 45 45 45 46 46 48 48 50 51 52 53 53 53 53 53 53 54 56 56 55 54 54 54 53 53 54 55 56 57 58 58 58
39 39 39 40 40 42 43 43 44 44 44 44 45 45 46 46 47 48 49 50 52 52 53 53 53 53 53 54 55 56 55 55 54 54 55 55 55 55 56 57 57 57 57
38 39 39 39 40 41 42 43 43 43 43 44 44 45 46 46 47 47 49 50 51 51 51 51 52 52 53 53 54 55 55 54 53 53 54 54 54 54 55 56 57 56 56
38 38 39 39 40 40 41 42 43 44 44 44 44 44 45 46 46 46 47 47 48 49 48 49 49 50 51 52 52 53 53 52 52 52 53 53 53 53 54 55 56 56 57
37 38 38 39 39 40 41 41 42 42 43 44 43 43 43 44 45 45 45 46 46 47 47 47 48 49 50 51 50 50 50 50 50 51 51 51 52 54 55 56 57 57 56
38 38 38 38 39 39 39 40 41 42 42 42 42 42 41 42 43 43 44 44 44 45 45 45 45 46 48 49 50 50 50 49 49 50 50 50 51 53 54 55 56 57 56
37 37 37 37 37 38 38 38 39 40 40 41 41 41 40 41 41 41 42 42 43 43 44 44 44 44 46 48 49 49 49 49 49 49 48 48 50 51 52 52 52 53 54
36 35 36 36 36 36 36 36 37 37 37 38 38 39 39 39 39 40 40 40 40 41 41 41 42 43 43 45 46 46 46 47 47 47 47 47 49 50 51 51 52 52 53
35 35 35 34 34 34 34 34 34 35 35 35 36 36 37 37 37 37 38 38 38 38 39 39 40 40 41 41 42 43 44 45 44 44 45 46 47 49 50 51 52 52 52
34 34 34 33 33 33 33 32 32 33 34 34 34 34 35 35 35 36 36 36 37 37 37 37 38 38 38 39 39 41 42 42 43 43 43 45 46 48 49 49 49 49 49
33 33 32 32 31 31 31 31 32 31 31 31 32 32 32 33 33 33 33 33 34 34 35 35 35 35 36 37 38 39 40 41 41 41 42 43 44 45 47 47 47 47 46
31 31 30 30 30 30 30 30 30 30 30 29 29 29 30 30 30 30 30 30 30 31 31 31 31 32 33 34 35 36 37 37 38 38 38 40 41 42 42 43 43 43 43
31 30 30 29 29 28 28 28 28 28 28 28 28 27 27 27 27 27 27 27 27 28 28 28 28 29 29 30 31 32 33 34 34 35 35 36 37 38 38 39 39 39 39
29 28 28 27 27 26 26 25 25 25 26 26 26 26 25 25 25 25 25 26 26 26 26 26 27 27 27 28 29 29 30 30 31 31 32 32 32 33 34 35 35 36 36
28 28 27 26 25 24 23 23 23 23 23 22 22 22 23 23 23 24 24 24 24 24 24 24 25 25 26 26 26 27 27 27 28 29 29 29 30 31 31 32 33 34 35
26 26 25 25 24 23 22 21 21 20 21 21 21 21 21 21 21 21 21 22 22 23 23 23 23 24 24 24 25 26 26 26 26 27 27 27 28 29 30 30 31 32 33
24 24 24 23 22 22 21 20 20 20 20 20 20 20 20 19 19 19 18 18 19 20 20 21 21 21 22 23 24 25 25 25 25 26 27 27 27 27 28 29 30 31 32
Wind_Direction
269 269 269 269 269 268 268 267 266 264 263 260 260 260 258 257 257 257 257 258 258 258 258 257 257 258 258 258 257 257 256 256 255 253 253 253 252 250 249 249 249 250 251
271 270 271 271 270 269 268 267 266 264 262 261 260 261 261 261 260 258 258 258 258 257 256 256 257 257 257 257 257 257 257 257 256 254 253 253 253 252 250 249 249 250 251
273 273 273 273 272 270 269 268 266 264 263 263 262 263 263 263 263 261 260 258 257 257 257 257 257 257 257 257 257 257 257 257 257 255 254 254 253 252 251 250 249 250 251
274 275 275 274 273 271 269 267 266 265 264 264 264 265 265 264 263 263 261 259 257 256 256 256 256 257 258 257 257 257 257 257 257 256 255 255 254 252 251 250 249 249 249
274 275 276 275 273 271 268 266 265 265 265 265 265 266 267 266 265 263 261 259 257 257 257 256 256 257 257 257 257 257 256 256 256 255 255 254 253 252 251 250 249 249 248
276 276 276 274 273 272 270 268 266 267 267 267 267 267 268 267 266 265 263 260 258 257 257 257 256 256 256 257 257 256 256 256 256 255 254 253 253 252 251 249 248 247 247
278 276 275 274 273 273 272 269 268 268 268 268 268 268 269 268 266 265 263 261 259 257 257 256 256 256 256 256 256 256 256 255 255 254 253 253 253 252 250 248 247 246 246
278 276 275 274 273 272 272 271 270 269 269 269 270 270 269 268 266 264 263 261 259 258 257 256 256 255 256 256 256 256 256 256 255 254 253 252 250 249 248 247 247 246 246
278 277 276 275 273 272 273 272 270 270 270 270 270 270 269 268 267 265 263 262 259 258 257 257 257 256 256 256 257 257 256 256 255 253 252 251 249 248 247 247 247 247 247
280 278 278 276 275 273 273 272 272 271 271 271 271 271 270 269 267 266 265 263 260 259 258 258 257 257 256 256 257 257 256 255 254 253 252 250 250 249 249 248 247 248 249
282 281 280 279 277 275 274 273 272 272 272 272 272 271 270 269 268 267 266 264 263 261 259 258 258 257 256 256 256 257 257 255 255 253 252 251 250 250 249 249 247 248 250
283 282 281 280 278 277 275 275 274 273 272 272 273 273 271 269 268 268 266 264 263 262 261 259 258 257 257 257 256 256 256 255 253 252 251 250 249 249 249 248 247 249 250
285 284 284 282 280 279 277 276 275 274 274 274 274 273 271 270 269 268 266 264 263 262 261 260 259 259 259 258 257 255 255 255 253 251 249 248 248 249 249 247 248 249 250
287 287 286 285 283 282 280 279 277 276 275 274 274 273 273 270 269 268 266 265 264 262 261 260 259 259 259 257 256 254 254 253 252 251 249 247 247 248 248 249 250 250 251
288 287 286 285 284 283 281 280 278 277 277 277 275 274 273 272 270 268 267 266 264 262 261 261 260 259 257 256 254 254 254 253 253 251 249 248 248 249 248 249 250 250 252
290 288 287 286 285 283 282 281 280 279 278 277 275 275 274 273 272 270 269 268 267 265 263 263 261 259 257 256 254 254 253 254 253 252 249 248 249 249 248 249 252 253 253
293 291 289 287 286 284 283 281 280 279 280 279 277 276 274 273 273 271 270 268 267 265 264 262 260 259 258 256 254 253 252 252 251 251 250 249 249 249 248 249 251 252 252
296 294 292 289 287 286 284 282 281 279 279 279 279 278 276 274 274 272 270 267 266 265 264 262 260 259 258 256 253 251 251 250 251 251 249 249 249 250 250 250 251 251 252
299 298 294 291 288 286 285 284 283 282 280 280 278 277 276 275 274 273 270 268 266 265 263 262 260 258 257 255 253 251 251 250 251 251 249 249 250 251 251 251 251 252 252
301 300 298 295 292 289 288 287 286 286 284 282 280 278 277 276 275 274 272 270 267 265 263 261 259 258 257 256 254 251 251 251 251 253 252 252 252 252 253 253 252 252 252
305 303 302 299 296 293 291 290 288 287 286 285 282 281 280 279 276 274 273 271 268 265 263 261 259 259 258 256 253 251 251 252 253 254 255 254 254 253 253 253 252 252 251
307 306 304 303 301 298 294 292 291 289 288 287 285 284 282 280 276 273 271 270 269 265 262 260 259 259 257 255 253 251 251 252 253 254 255 254 253 253 251 250 250 249 249
309 308 307 305 304 302 299 295 293 292 291 289 287 285 285 282 277 273 271 268 267 264 260 259 258 257 255 254 254 252 251 252 251 252 253 251 252 251 250 249 248 247 247
311 310 309 307 306 303 302 299 296 294 294 293 292 289 288 286 281 277 272 269 266 264 261 259 259 258 255 254 253 253 252 251 251 251 250 249 249 249 248 247 247 246 247
311 311 310 309 307 305 302 301 299 297 296 295 295 294 293 289 285 281 276 271 268 264 262 261 260 258 255 254 252 250 249 248 247 247 246 245 246 247 247 247 247 246 248
312 312 311 311 308 305 303 302 301 299 298 296 295 295 295 293 288 283 278 274 270 266 263 262 260 259 256 253 251 249 247 247 245 244 244 243 244 246 246 248 248 248 249